Погода в Бессоновке

Россия / Белгородская область     50°31′28″N   36°18′09″E
темп.,
°C
ветер,
м/с
пор.,
м/с
влажн.,
%
обл.,
%
осадки,
мм/ч
давл.,
гПа
погр.,
м
4 августа, ср
ср400:00+18с23696 0.0 101533
03:00+15св118063 0.0 101611
06:00+18с126887 0.0 101648
09:00+23сз23471 0.0 1017874
12:00+26з343447 0.0 10172603
15:00+28зсз65267 0.0 10162860
18:00+26сз542814 0.0 10162406
21:00+19ссв344520 0.0 101747
5 августа, чт
чт500:00+17всв35535 0.0 101864
03:00+16вюв346079 0.0 101854
06:00+17юв3659100 0.0 1017108
09:00+25ююв563897 0.0 1017599
12:00+29ю4527100 0.0 10152787
15:00+29юз3426100 0.0 10142672
18:00+28з233085 0.0 1013706
21:00+22вюв224424 0.0 101313
6 августа, пт
пт600:00+20юв4550100 0.0 101272
03:00+19ююв410525 0.0 1012161
06:00+18вюв3851100 0.0 1011166
09:00+26ююв583495 0.0 1010541
12:00+33ююв79295 0.0 10081967
15:00+35ю782792 0.0 10063560
18:00+31юв68396 0.1 10061166
21:00+21сз5874100 6.4 100797
7 августа, сб
сб700:00+22вюв467699 1.1 100785
03:00+19юв41185100 1.4 1007190
06:00+19юв51682100 2.6 1008316
09:00+21юв51375100 3.3 1008364
12:00+30ююв6934100 0.6 10081093
15:00+35ю482237 0.7 10062985
18:00+32ю6930100 0.0 1007709
21:00+23ююв3357100 0.4 100835
8 августа, вс
вс800:00+21з3375100 0.6 101049
03:00+20з2281100 1.3 101025
06:00+19ссз4796100 0.2 1011190
09:00+23с457569 0.2 1012368
12:00+29ссз44458 0.0 10111111
15:00+32сз6538100 0.0 10111752
18:00+30сз674495 0.0 1011882
21:00+21с5118474 1.5 1014263